DELTA 1 DEB, 40759

Orbit data source: Space-Track

DELTA 1 DEB, 40759 is space debris in SSO originally from a launch on Thu, 29 Jul 1976 UTC launched from the Air Force Western Test Range (AFWTR). Debris objects in space refer to the collection of defunct objects orbiting the Earth. Examples of debris include non-operational satellites, rocket bodies, and fragments generated from explosions, collisions, or faulty payload assembly.

Loading next visibility...
Identifier
40759, 1976-077GC
Orbit
SSO
Country
Flag of USUS
Related business
Manufacturer
Unknown
Mission
Spacecraft
Bus & Motor
Unknown
Mass
Unknown
Launch date (UTC)
1976-07-29 (50 years ago)
Launch vehicle
Unknown
Launch site
Air Force Western Test Range (AFWTR)
Object type
Payload
Rocket body
Debris
Shape & HBR
Unknown shape, 0.1 m
Radar Cross Section
Small (<0.1 m²)

Expand to show TLE details & history
Last TLE update: 2 months ago

TLE from 2 months ago
0 DELTA 1 DEB
1 40759U 76077GC  25333.07060829  .00000031  00000-0  35888-3 0  9999
2 40759 102.1201  64.4798 0291866 349.0113  10.4683 12.66472688959673
Epoch: 2025-11-29T01:41Z
TLE epoch observation values (Epoch: 2025-11-29T01:41:40.556Z)
Latitude
-0.00006°
Longitude
-29.14326°
Altitude
1,175.985 km
Speed
7.369 km/s
True Right ascension
04h 17m 55s
True Declination
0° 00' 00"
Sunlit
Object was in full shadow at epoch
Visualization orbit readout
Latitude
Unknown
Longitude
Unknown
Altitude
Unknown
Speed
Unknown
Apparent Right ascension
Unknown
Apparent Declination
Unknown
Sunlit
N/A
Visualization observer readout
Local Sidereal Time
02:48:21
Azimuth
Unknown
Elevation
Unknown
Doppler factor
Unknown
Orbital elements
Apogee altitude
1,620.725 km
Perigee altitude
1,167.047 km
Semi-major axis
7,772.023 km
Eccentricity
0.02919
Inclination
102.1201°
RAAN
64.4798°
Arg. of periapsis
349.0113°
True anomaly
11.09854°
Mean anomaly
10.4683°
Eccentric anomaly
10.78111°
Mean motion
3.16769 °/min
Orbital period
113.65 mins
BSTAR
0.00035888
Loading maneuver chart data...
Computing Atmospheric mass density...
Loading historical data...
Loading historical data...
Loading historical data...
Loading historical data...
Loading historical data...
Loading historical data...
Loading historical data...

Documentation

Showing up to 5 results
|